STARLINK-30324 (57640 NORAD) Tracking and Keplerian Element Data

This shows tracking and keplerian element data for the satellite.

Feedback or suggestion? Click here.




ElementValue
Catalog57640
NameSTARLINK-30324
Epoch Orbit2384
Epoch Day13.1433154
Epoch Year2024
RAAN48.6058
Inclination43.0028
Eccentricity8.31E-05
Argument of Perigee251.8637
Mean Anonmoly108.2115
Mean Motion15.02547004
Decay Rate0.00021441
L11 57640U 23122J 24013.14331540 .00021441 00000+0 15970-2 0 9998
L22 57640 43.0028 48.6058 0000831 251.8637 108.2115 15.02547004 23849



Live tracking and technical data element details for STARLINK-30324 (NORAD 57640). STARLINK-30324 can be tracked NOW for your location showing map with azimuth and elevation plus other details from your city location.







IsCatalogInMostPopularTable: catalog: 57640, numindb: 35
Update: records affected: 1



GetName: 57640 STARLINK-30324

Hit Count: updated at: Thu, 29 Feb 2024 11:04:34 GMT